Location: New Town
(33.2710°N, 90.7534°W)
Time: 14:03:57
(UTC+00:00)

Explorer 11/Cluster Stage 4 - Pass Details

Date: 14 May 2021
Orbit: 467 x 1257 km, 28.8° (Epoch: 14 June)

Event Time Altitude Azimuth Distance (km) Brightness Sun altitude
Rises 23:56:32 0° 212° (SSW) 3,884 10.4 10.7°
Reaches altitude 10° 23:59:53 10° 197° (SSW) 3,036 9.7 10.0°
Maximum altitude 00:05:32 22° 150° (SSE) 2,366 8.7 8.9°
Drops below altitude 10° 00:11:30 10° 103° (ESE) 3,226 9.1 7.7°
Sets 00:15:10 0° 90° (E) 4,189 9.7 6.9°
